Muncie, IN

12:15 PM EST on January 20, 2017 (GMT -0500)
Delaware County-Johnson

Weather History for KMIE - November, 2012

Change the Weather History Date:

Friday, November 23, 2012

  Actual Average Record
Temperature  
Mean Temperature 42 °F 39 °F  
Max Temperature 56 °F 47 °F 70 °F (1999)
Min Temperature 28 °F 31 °F 3 °F (1970)
Degree Days  
Heating Degree Days 23 26  
Month to date heating degree days 522 478  
Since 1 July heating degree days 1053 942  
Cooling Degree Days 0 0  
Month to date cooling degree days 0 0  
Year to date cooling degree days 1149 955  
Moisture  
Dew Point 29 °F    
Average Humidity 70    
Maximum Humidity 89    
Minimum Humidity 51    
Precipitation  
Precipitation 0.15 in 0.13 in 1.48 in (2014)
Month to date precipitation 0.92 2.66  
Year to date precipitation 30.57 36.45  
Sea Level Pressure  
Sea Level Pressure 30.03 in    
Wind  
Wind Speed 18 mph (West)    
Max Wind Speed 36 mph    
Max Gust Speed 45 mph    
Visibility 9 miles    
Events Rain    
T = Trace of Precipitation, MM = Missing Value Source: NWS Daily Summary

Daily Weather History Graph

Daily Weather History Graph

Search for Another Location

Airport or City:

Trip Planner

Search our weather history database for the weather conditions in past years. The results will help you decide how hot, cold, wet, or windy it might be!

Date:

Astronomy

Nov. 23, 2012 Rise Set
Actual Time 7:36 AM EST 5:19 PM EST
Civil Twilight 7:07 AM EST 5:48 PM EST
Nautical Twilight 6:33 AM EST 6:22 PM EST
Astronomical Twilight 6:01 AM EST 6:54 PM EST
Moon 2:33 PM EST (11/23) 2:54 AM EST (11/23)
Length of Visible Light 10h 41m
Length of Day
9h 42m
Waxing Gibbous, 79% of the Moon is Illuminated
Nov 23
Waxing Gibbous
Nov 28
Full
Dec 6
Last Quarter
Dec 13
New
Dec 20
First Quarter

Hourly Weather History & Observations

Time (EST) Temp. Windchill Dew Point Humidity Pressure Visibility Wind Dir Wind Speed Gust Speed Precip Events Conditions
12:41 AM 53.6 °F - 42.8 °F 67% 29.92 in 9.0 mi SW 15.0 mph 24.2 mph 0.00 in Rain Light Rain
12:53 AM 53.1 °F - 43.0 °F 69% 29.91 in 6.0 mi SW 10.4 mph 21.9 mph 0.01 in Rain Light Rain
1:44 AM 51.8 °F - 48.2 °F 88% 29.90 in 4.0 mi SW 10.4 mph - 0.07 in Rain Light Rain
1:53 AM 51.1 °F - 48.0 °F 89% 29.89 in 3.0 mi SW 12.7 mph 20.7 mph 0.09 in Rain Rain
2:01 AM 51.8 °F - 48.2 °F 88% 29.91 in 4.0 mi SW 11.5 mph 21.9 mph 0.01 in Rain Light Rain
2:53 AM 53.1 °F - 48.9 °F 86% 29.89 in 4.0 mi WSW 16.1 mph 23.0 mph 0.02 in Rain Light Rain
3:45 AM 53.6 °F - 48.2 °F 82% 29.90 in 7.0 mi West 16.1 mph 20.7 mph 0.03 in   Overcast
3:53 AM 53.1 °F - 48.9 °F 86% 29.89 in 7.0 mi West 21.9 mph 33.4 mph 0.03 in   Overcast
4:13 AM 48.2 °F - 42.8 °F 82% 29.92 in 10.0 mi WNW 21.9 mph 31.1 mph N/A   Mostly Cloudy
4:53 AM 44.1 °F 35.9 °F 37.9 °F 79% 29.93 in 10.0 mi West 19.6 mph 28.8 mph N/A   Partly Cloudy
5:53 AM 39.9 °F 31.8 °F 34.0 °F 79% 29.95 in 10.0 mi West 15.0 mph 24.2 mph N/A   Clear
6:53 AM 39.0 °F 31.4 °F 34.0 °F 82% 29.96 in 10.0 mi West 12.7 mph - N/A   Partly Cloudy
7:53 AM 37.0 °F 29.8 °F 30.9 °F 79% 29.97 in 10.0 mi West 10.4 mph - N/A   Clear
8:53 AM 37.9 °F 28.5 °F 30.9 °F 76% 29.98 in 10.0 mi West 17.3 mph 26.5 mph N/A   Clear
9:31 AM 37.4 °F 26.1 °F 30.2 °F 75% 29.98 in 10.0 mi West 24.2 mph 32.2 mph N/A   Mostly Cloudy
9:53 AM 37.9 °F 27.1 °F 28.9 °F 70% 29.99 in 10.0 mi West 23.0 mph 29.9 mph N/A   Overcast
10:44 AM 37.4 °F 25.2 °F 26.6 °F 65% 30.00 in 10.0 mi West 28.8 mph 44.9 mph N/A   Overcast
10:53 AM 37.0 °F 25.1 °F 25.0 °F 62% 30.01 in 10.0 mi WNW 26.5 mph 38.0 mph N/A   Overcast
11:53 AM 35.1 °F 23.0 °F 24.1 °F 64% 30.02 in 10.0 mi West 24.2 mph 34.5 mph N/A   Overcast
12:01 PM 35.6 °F 24.5 °F 24.8 °F 65% 30.02 in 10.0 mi West 20.7 mph 34.5 mph N/A   Overcast
12:21 PM 33.8 °F 21.3 °F 24.8 °F 70% 30.01 in 10.0 mi West 24.2 mph 31.1 mph N/A   Overcast
12:53 PM 35.1 °F 22.2 °F 24.1 °F 64% 30.01 in 10.0 mi WNW 27.6 mph 36.8 mph N/A   Overcast
1:53 PM 33.1 °F 20.1 °F 23.0 °F 66% 30.02 in 10.0 mi WNW 25.3 mph 36.8 mph N/A   Overcast
2:10 PM 33.8 °F 22.2 °F 21.2 °F 60% 30.02 in 10.0 mi WNW 20.7 mph 39.1 mph N/A   Overcast
2:48 PM 32.0 °F 18.4 °F 21.2 °F 64% 30.04 in 10.0 mi WNW 26.5 mph 34.5 mph N/A   Overcast
2:53 PM 32.0 °F 18.6 °F 21.9 °F 66% 30.05 in 10.0 mi WNW 25.3 mph 34.5 mph N/A   Overcast
3:53 PM 30.9 °F 18.7 °F 21.0 °F 67% 30.08 in 10.0 mi WNW 19.6 mph 34.5 mph N/A   Overcast
4:53 PM 30.9 °F 18.4 °F 19.9 °F 64% 30.12 in 10.0 mi WNW 20.7 mph 32.2 mph N/A   Overcast
5:44 PM 30.2 °F 17.1 °F 17.6 °F 60% 30.13 in 10.0 mi WNW 21.9 mph 28.8 mph N/A   Overcast
5:53 PM 30.0 °F 17.2 °F 19.0 °F 64% 30.14 in 10.0 mi WNW 20.7 mph 27.6 mph N/A   Overcast
6:10 PM 30.2 °F 17.4 °F 19.4 °F 64% 30.14 in 10.0 mi WNW 20.7 mph 29.9 mph N/A   Overcast
6:53 PM 30.0 °F 19.1 °F 19.0 °F 64% 30.17 in 10.0 mi WNW 15.0 mph 23.0 mph N/A   Overcast
7:17 PM 28.4 °F 15.8 °F 17.6 °F 64% 30.16 in 10.0 mi NW 18.4 mph 27.6 mph N/A   Overcast
7:53 PM 28.9 °F 16.5 °F 18.0 °F 64% 30.19 in 10.0 mi NW 18.4 mph 26.5 mph N/A   Overcast
8:53 PM 28.9 °F 16.9 °F 18.0 °F 64% 30.19 in 10.0 mi NW 17.3 mph 23.0 mph N/A   Overcast
9:53 PM 28.0 °F 15.7 °F 17.1 °F 63% 30.19 in 10.0 mi West 17.3 mph - N/A   Overcast
10:53 PM 28.0 °F 19.3 °F 17.1 °F 63% 30.19 in 10.0 mi West 9.2 mph - N/A   Overcast
11:53 PM 28.0 °F 17.0 °F 18.0 °F 66% 30.18 in 10.0 mi West 13.8 mph 17.3 mph N/A   Overcast